Date,TemperatureHighF,TemperatureAvgF,TemperatureLowF,DewpointHighF,DewpointAvgF,DewpointLowF,HumidityHigh,HumidityAvg,HumidityLow,PressureMaxIn,PressureMinIn,WindSpeedMaxMPH,WindSpeedAvgMPH,GustSpeedMaxMPH,PrecipitationSumIn
2013-1-1,37.8,34.5,25.9,36.1,32.9,23.6,96,94,91,30.24,30.01,4,0,5,0.00
2013-1-2,36.5,28.2,22.6,32.1,25.4,20.6,93,89,79,30.27,30.16,3,0,3,0.00
2013-1-3,43.3,31.7,24.6,33.9,28.0,22.6,93,87,64,30.41,30.23,2,0,6,0.00
2013-1-4,45.9,33.9,26.8,33.0,28.8,25.0,94,83,54,30.46,30.30,5,0,6,0.00
2013-1-5,48.0,38.6,29.8,38.1,33.7,28.1,95,83,65,30.31,30.13,6,0,6,0.00
2013-1-6,46.2,35.9,27.7,32.5,28.9,25.4,94,78,48,30.35,30.17,6,0,6,0.00
2013-1-7,51.6,37.0,27.5,35.6,29.0,25.4,94,75,43,30.37,30.12,7,0,9,0.00
2013-1-8,56.8,43.4,29.5,44.3,35.2,26.6,91,74,51,30.17,30.03,6,0,14,0.00
2013-1-9,58.8,51.2,43.7,47.4,42.9,37.4,92,75,55,30.33,30.16,9,0,9,0.00
2013-1-10,52.5,48.0,44.4,50.6,45.9,37.6,97,93,57,30.24,29.80,11,1,11,0.12
2013-1-11,66.0,54.4,44.1,54.1,48.8,42.6,97,82,60,29.87,29.74,14,3,14,0.00
2013-1-12,57.0,47.2,34.2,51.8,44.6,32.5,95,91,78,29.91,29.74,8,0,8,0.61
2013-1-13,34.7,28.7,20.5,32.8,24.3,16.3,94,84,70,30.35,29.89,8,1,8,0.00
2013-1-14,30.2,23.4,17.8,19.8,16.6,14.2,89,76,57,30.49,30.33,7,0,7,0.00
2013-1-15,32.9,25.6,18.7,24.5,19.0,13.9,83,76,68,30.35,30.13,3,0,3,0.00
2013-1-16,44.2,30.9,21.4,28.4,23.6,18.8,90,76,48,30.20,30.05,4,0,4,0.00
2013-1-17,46.2,36.1,29.1,35.7,29.9,25.8,91,79,59,30.46,30.14,5,0,7,0.00
2013-1-18,58.8,42.8,26.2,42.0,31.7,24.7,94,68,39,30.50,30.17,12,2,13,0.00
2013-1-19,66.0,47.7,32.7,44.1,35.4,26.7,91,65,36,30.17,30.00,11,1,11,0.00
2013-1-20,53.4,41.2,31.6,36.6,30.3,20.3,94,69,37,30.26,30.09,6,0,7,0.00
2013-1-21,39.4,30.3,24.1,19.9,15.9,13.6,67,55,39,30.38,30.22,6,0,6,0.00
2013-1-22,37.6,29.4,21.7,20.7,18.1,12.7,83,64,45,30.37,30.23,8,0,8,0.00
2013-1-23,54.3,36.1,23.2,39.6,29.0,19.5,92,76,56,30.28,30.08,4,0,5,0.00
2013-1-24,40.6,34.5,29.3,35.5,19.2,13.6,89,54,42,30.39,30.17,11,3,14,0.00
2013-1-25,48.7,37.3,29.3,35.1,29.4,20.2,85,73,56,30.22,30.11,7,0,7,0.00
2013-1-26,55.9,43.1,30.7,37.9,29.9,25.9,93,65,32,30.29,30.14,9,1,9,0.00
2013-1-27,57.0,49.1,43.9,54.2,43.1,30.4,93,80,54,30.16,29.92,9,1,9,0.04
2013-1-28,74.8,65.9,56.8,62.5,59.1,54.2,94,80,59,29.95,29.83,18,3,19,0.00
2013-1-29,70.9,62.9,52.2,62.9,58.6,51.0,96,86,75,29.83,29.35,17,4,17,1.02
2013-1-30,52.3,39.1,28.9,51.2,33.1,22.3,96,79,69,30.02,29.42,18,3,18,0.00
2013-1-31,50.2,32.0,20.7,30.3,22.5,6.3,89,69,45,30.41,29.99,9,1,11,0.00